Location: Lussas
(44.6119°N, 4.4726°E)
Time: 16:51:15
(UTC+00:00)

COSMOS 2455 - Visible Passes

Search period start: 12 April 2021 00:00
Search period end: 22 April 2021 00:00
Orbit: 902 x 908 km, 67.1° (Epoch: 12 April)

Date Brightness Start Highest point End Pass type
(mag) Time Alt. Az. Time Alt. Az. Time Alt. Az.
12 Apr 4.0 00:21:52 39° NNW 00:21:52 39° NNW 00:26:18 10° NNE visible
12 Apr 5.2 02:05:23 10° NW 02:08:08 13° NNW 02:10:52 10° N visible
12 Apr 4.6 22:42:15 22° NE 22:42:15 22° NE 22:44:21 10° NE visible
13 Apr 4.1 00:25:20 34° NNW 00:25:20 34° NNW 00:30:12 10° NNE visible
13 Apr 5.3 02:10:53 10° NW 02:12:36 11° NNW 02:14:19 10° N visible
13 Apr 4.3 22:45:40 29° NE 22:45:40 29° NE 22:48:30 10° NE visible
14 Apr 4.3 00:28:46 28° NW 00:28:55 28° NW 00:34:04 10° NNE visible
14 Apr 3.9 22:49:02 37° NE 22:49:02 37° NE 22:52:34 10° NNE visible
15 Apr 4.6 00:32:07 22° NW 00:33:12 23° NW 00:37:54 10° NNE visible
15 Apr 5.0 21:09:13 11° ENE 21:09:13 11° ENE 21:09:23 10° ENE visible
15 Apr 3.6 22:52:18 48° NNE 22:52:18 48° NNE 22:56:36 10° NNE visible
16 Apr 4.9 00:35:24 16° WNW 00:37:31 19° NW 00:41:41 10° N visible
16 Apr 5.7 04:14:27 10° N 04:15:28 10° NNE 04:16:29 10° NNE visible
16 Apr 4.7 21:12:24 16° ENE 21:12:24 16° ENE 21:13:57 10° NE visible
16 Apr 3.5 22:55:28 53° NNW 22:55:28 53° NNW 23:00:34 10° NNE visible
17 Apr 5.2 00:38:33 10° WNW 00:41:53 16° NNW 00:45:26 10° N visible
17 Apr 5.6 04:17:38 10° N 04:19:57 12° NNE 04:22:16 10° NE visible
17 Apr 4.1 21:15:25 25° ENE 21:15:25 25° ENE 21:18:19 10° NE visible
17 Apr 3.7 22:58:29 45° WNW 22:58:44 45° NW 23:04:30 10° NNE visible
18 Apr 5.4 00:43:33 10° NW 00:46:19 13° NNW 00:49:05 10° N visible
18 Apr 5.5 04:21:13 10° N 04:24:24 14° NNE 04:27:35 10° ENE visible
18 Apr 3.5 21:18:15 40° ENE 21:18:15 40° ENE 21:22:33 10° NE visible
18 Apr 4.1 23:01:18 30° WNW 23:02:54 35° NW 23:08:25 10° NNE visible
19 Apr 5.5 00:49:01 10° NW 00:50:47 11° NNW 00:52:33 10° N visible
19 Apr 2.7 21:20:46 63° ESE 21:20:46 63° ESE 21:26:42 10° NE visible
19 Apr 4.5 23:03:47 18° W 23:07:08 28° NW 23:12:17 10° NNE visible
20 Apr 4.4 19:39:46 14° E 19:39:46 14° E 19:42:32 10° ENE visible
20 Apr 2.7 21:22:44 45° SSW 21:24:43 83° ESE 21:30:46 10° NNE visible
20 Apr 4.9 23:06:41 10° W 23:11:23 23° NW 23:16:07 10° NNE visible
21 Apr 4.1 19:40:27 13° SE 19:43:29 19° ESE 19:47:33 10° ENE visible
21 Apr 2.9 21:23:13 13° SW 21:28:44 76° WNW 21:34:47 10° NNE visible
21 Apr 5.2 23:11:32 10° W 23:15:43 19° NW 23:19:55 10° N visible
